[[[{"header":{"parameterUnit":"kt","parameterCategory":2,"dx":1,"dy":1,"la1":30.253999710083008,"la2":30.299108505249023,"lo1":-89.0895004272461,"lo2":-89.04439544677734,"nx":28,"ny":28,"refTime":"2022-10-13T21:00:00:Z","depth":0,"parameterNumber":1,"parameterNumberName":"U-component_of_WINDS"},"data":[-5.2341,-5.2426,-5.2402,-5.249,-5.2483,-5.2539,-5.2552,-5.2567,-5.2572,-5.264,-5.2676,-5.2661,-5.2659,-5.2697,-5.2736,-5.2729,-5.2748,-5.28,-5.2782,-5.2571,-5.2541,-5.2511,-5.2487,-5.2804,-5.2805,-5.3003,-5.3005,-5.3006,-5.2202,-5.2195,-5.2232,-5.2251,-5.2285,-5.2221,-5.2233,-5.2265,-5.2318,-5.2325,-5.2356,-5.2414,-5.2457,-5.2435,-5.2473,-5.2517,-5.2489,-5.253,-5.2525,-5.2526,-5.23,-5.2275,-5.2552,-5.2552,-5.2552,-5.2552,-5.2552,-5.2552,-5.1941,-5.1992,-5.1986,-5.2026,-5.2028,-5.2042,-5.2087,-5.2064,-5.2102,-5.2133,-5.2095,-5.2154,-5.2157,-5.2186,-5.219,-5.2239,-5.2188,-5.2224,-5.2233,-5.2243,-5.2259,-5.1981,-5.2244,-5.2243,-5.2242,-5.2241,-5.2241,0,-5.174,-5.1715,-5.1745,-5.1771,-5.1798,-5.1814,-5.1825,-5.1853,-5.1786,-5.182,-5.1867,-5.1889,-5.1936,-5.1978,-5.2006,-5.2,-5.1935,-5.1925,-5.195,-5.1969,-5.1986,-5.1979,-5.1614,-5.1916,-5.1913,-5.1911,-5.191,-5.1909,-5.1475,-5.1536,-5.1514,-5.154,-5.1536,-5.158,-5.16,-5.1535,-5.156,-5.1565,-5.1614,-5.1654,-5.1682,-5.1763,-5.1734,-5.1769,-5.1737,-5.1856,-5.1741,-5.176,-5.1739,-5.1736,-5.1743,-5.1878,-5.1882,-5.1885,-5.1888,0,-5.133,-5.128,-5.1364,-5.1333,-5.1328,-5.1397,-5.1372,-5.1421,-5.139,-5.1453,-5.1464,-5.1416,-5.1463,-5.1413,-5.1455,-5.1429,-5.155,-5.1518,-5.1551,-5.1542,-5.1644,-5.1636,-5.1981,-5.2024,-5.1694,-5.1698,-5.17,0,-5.1083,-5.1164,-5.1085,-5.1136,-5.1227,-5.1155,-5.1249,-5.1229,-5.1223,-5.1272,-5.1187,-5.1236,-5.1161,-5.1204,-5.1164,-5.1253,-5.126,-5.1245,-5.1233,-5.1251,-5.1254,-5.1262,-5.1246,-5.1201,-5.1199,-5.1197,-5.1196,0,-5.0857,-5.0908,-5.0991,-5.0994,-5.0966,-5.1008,-5.0999,-5.0988,-5.1007,-5.1024,-5.1037,-5.1063,-5.1077,-5.1101,-5.1046,-5.0971,-5.1154,-5.1038,-5.1138,-5.114,-5.1177,-5.1175,-5.1497,-5.1194,-5.1193,-5.1193,-5.1192,0,-5.0647,-5.0661,-5.0787,-5.0762,-5.0777,-5.0832,-5.0849,-5.0883,-5.0879,-5.0854,-5.0867,-5.0801,-5.0872,-5.0762,-5.086,-5.0777,-5.0798,-5.0788,-5.0794,-5.0794,-5.0672,-5.0859,-5.1171,-5.1202,-5.0802,-5.0799,-5.0796,0,-5.0405,-5.0515,-5.045,-5.0572,-5.0615,-5.0513,-5.0574,-5.0569,-5.054,-5.0575,-5.0544,-5.0584,-5.049,-5.0494,-5.0551,-5.052,-5.0629,-5.0504,-5.056,-5.0563,-5.0564,-5.0851,-5.0908,-5.1109,-5.0753,-5.0758,-5.0761,0,-5.0208,-5.0165,-5.0191,-5.019,-5.0167,-5.0201,-5.027,-5.029,-5.0317,-5.0319,-5.0376,-5.043,-5.0362,-5.0369,-5.0316,-5.0377,-5.0553,-5.0294,-5.0292,-5.0344,-5.0726,-5.0782,-5.0816,-5.0506,-5.0511,-5.0515,-5.0727,0,-4.9905,-4.995,-5.0016,-5.0011,-5.0028,-5.0098,-5.0033,-5.0061,-5.0007,-4.9972,-5.0053,-5.0031,-5.0052,-5.0074,-5.002,-5.0174,-5.0139,-5.0064,-4.9949,-5.0138,-5.0207,-5.0234,-4.9854,-4.985,-4.9847,-4.9844,0,0,-4.9686,-4.9745,-4.9666,-4.9725,-4.9733,-4.962,-4.9701,-4.9697,-4.969,-4.97,-4.9636,-4.9707,-4.969,-4.9795,-4.9849,-4.9857,-4.9879,-4.9813,-5.0049,-5.0072,-5.0093,-5.0167,-5.0197,-4.9838,-4.9837,-4.9836,-4.9835,0,-4.9558,-4.9539,-4.9616,-4.9608,-4.959,-4.9546,-4.9566,-4.9528,-4.9508,-4.9582,-4.9488,-4.9528,-4.9582,-4.9579,-4.9584,-4.98,-4.9725,-4.9812,-4.995,-5.0019,-5.0046,-5.007,-5.0149,-5.0179,-4.9827,-4.9828,-4.9828,0,-4.9353,-4.9322,-4.9351,-4.936,-4.9346,-4.9391,-4.9255,-4.9306,-4.9339,-4.9209,-4.9284,-4.9263,-4.925,-4.9356,-4.94,-4.9342,-4.959,-4.9498,-4.9516,-4.9518,-4.9582,-4.9615,-4.9645,-4.9258,-4.9257,-4.9255,0,0,-4.9252,-4.9289,-4.9232,-4.9326,-4.9325,-4.9258,-4.9273,-4.9217,-4.9205,-4.9201,-4.9169,-4.9162,-4.9194,-4.9216,-4.9241,-4.9365,-4.9358,-4.943,-4.9457,-4.9479,-4.9494,-4.9564,-4.9597,-4.9249,-4.9248,-4.9248,0,0,-4.9203,-4.9138,-4.9083,-4.9183,-4.9175,-4.9124,-4.9186,-4.9117,-4.9131,-4.9115,-4.9024,-4.9018,-4.9115,-4.9096,-4.9017,-4.9199,-4.9087,-4.9104,-4.9206,-4.9239,-4.9265,-4.9267,-4.8872,0,0,0,0,0,-4.9034,-4.9146,-4.9097,-4.9103,-4.911,-4.9152,-4.9153,-4.9078,-4.9002,-4.9054,-4.9016,-4.8933,-4.9036,-4.8964,-4.8973,-4.906,-4.9165,-4.918,-4.9194,-4.9355,-4.939,-4.942,0,0,0,0,0,0,-4.9036,-4.9044,-4.9094,-4.9049,-4.9049,-4.9147,-4.9001,-4.8984,-4.8994,-4.8977,-4.8943,-4.8931,-4.887,-4.8954,-4.8963,-4.9047,-4.8869,-4.9171,-4.9183,-4.9195,-4.9367,-4.9396,-4.942,0,0,0,0,0,-4.9037,-4.9043,-4.9073,-4.9046,-4.9047,-4.8976,-4.8996,-4.8981,-4.8987,-4.8926,-4.8912,-4.893,-4.8874,-4.8877,-4.8959,-4.9045,-4.8862,-4.8866,-4.9179,-4.9189,-4.9198,-4.9381,0,0,0,0,0,0,-4.9038,-4.903,-4.9071,-4.9069,-4.8996,-4.8969,-4.8961,-4.8978,-4.8934,-4.8921,-4.8909,-4.8896,-4.8879,-4.888,-4.8883,-4.9049,-4.8856,-4.886,-4.8862,-4.9187,-4.9194,-4.9201,0,0,0,0,0,0,-4.9026,-4.9029,-4.907,-4.9011,-4.9001,-4.8963,-4.8956,-4.9014,-4.8935,-4.8918,-4.8906,-4.8904,-4.8876,-4.8883,-4.8884,-4.8978,-4.8852,-4.8856,-4.8858,-4.886,-4.9193,-4.9199,0,0,0,0,0,0,-4.9026,-4.9028,-4.9011,-4.9003,-4.8994,-4.8962,-4.9012,-4.9024,-4.8883,-4.8922,-4.8868,-4.8861,-4.8881,-4.8881,-4.8886,-4.898,-4.8978,-4.8852,-4.8855,-4.8856,-4.8857,0,0,0,0,0,0,0,-4.9026,-4.9028,-4.9086,-4.8997,-4.8989,-4.9047,-4.9046,-4.9046,-4.8881,-4.8875,-4.8869,-4.8864,-4.8831,-4.8835,-4.8839,-4.8981,0,0,-4.8852,-4.8854,0,0,0,0,0,0,0,0,-4.9025,-4.9027,-4.9086,-4.9085,-4.9085,-4.9047,-4.9046,-4.9046,-4.888,-4.8875,-4.8871,-4.8866,-4.8832,-4.8836,-4.8839,0,0,0,0,0,0,0,0,0,0,0,0,0,0,0,-4.9085,-4.9085,0,-4.9047,-4.9046,-4.9046,-4.8879,-4.8875,-4.8872,-4.8868,-4.8833,-4.8836,-4.8839,0,0,0,0,0,0,0,0,0,0,0,0,0,0,0,0,0,0,0,0,0,0,0,0,0,0,0,0,0,0,0,0,0,0,0,0,0,0,0,0,0,0,0,0,0,0,0,0,0,0,0,0,0,0,0,0,0,0,0,0,0,0,0,0,0,0,0,0,0]}],[{"header":{"parameterUnit":"kt","parameterCategory":2,"dx":1,"dy":1,"la1":30.253999710083008,"la2":30.299108505249023,"lo1":-89.0895004272461,"lo2":-89.04439544677734,"nx":28,"ny":28,"refTime":"2022-10-13T21:00:00:Z","depth":0,"parameterNumber":2,"parameterNumberName":"V-component_of_WINDS"},"data":[3.5706,3.569,3.5735,3.5736,3.5777,3.5785,3.5802,3.5829,3.5861,3.5874,3.5889,3.593,3.5977,3.6004,3.602,3.6038,3.6042,3.6005,3.6031,3.6162,3.6182,3.6202,3.6211,3.6005,3.6004,3.5891,3.589,3.5889,3.5801,3.5843,3.5856,3.59,3.5912,3.5977,3.6016,3.6021,3.6025,3.6063,3.608,3.6094,3.6109,3.617,3.6191,3.6182,3.6213,3.6185,3.6186,3.6193,3.6334,3.6342,3.6161,3.6161,3.6161,3.6161,3.6161,3.6161,3.5988,3.5975,3.6029,3.6044,3.6078,3.6106,3.6102,3.6155,3.6167,3.6196,3.6246,3.625,3.6295,3.6341,3.6366,3.637,3.6408,3.639,3.6386,3.6381,3.637,3.6531,3.6375,3.6375,3.6376,3.6377,3.6377,0,3.6138,3.6178,3.6193,3.6223,3.6236,3.6262,3.6293,3.6291,3.6386,3.6391,3.6402,3.6416,3.6441,3.6455,3.6483,3.6513,3.6578,3.6588,3.6577,3.6554,3.6531,3.6544,3.6773,3.6592,3.6594,3.6595,3.6596,3.6597,3.633,3.6309,3.6386,3.6391,3.642,3.6425,3.6437,3.6523,3.6532,3.6581,3.6564,3.6579,3.6596,3.6603,3.666,3.6678,3.6709,3.6635,3.6711,3.6691,3.6709,3.671,3.6709,3.6619,3.6616,3.6614,3.6612,0,3.6434,3.6509,3.649,3.6568,3.6587,3.656,3.6626,3.6615,3.6666,3.6658,3.6661,3.674,3.6747,3.6818,3.6838,3.6875,3.6829,3.6859,3.6816,3.6826,3.6768,3.6773,3.6566,3.6544,3.6758,3.6756,3.6754,0,3.6627,3.6595,3.6709,3.6694,3.6662,3.675,3.6715,3.6756,3.6797,3.6791,3.6877,3.6869,3.6961,3.6962,3.7016,3.6991,3.6994,3.702,3.7035,3.7013,3.701,3.7017,3.7027,3.7067,3.7068,3.7069,3.7069,0,3.6783,3.6805,3.6782,3.6799,3.6877,3.6863,3.6894,3.6941,3.6951,3.6974,3.6982,3.7001,3.7011,3.7025,3.7093,3.7142,3.7064,3.7145,3.7091,3.7089,3.7069,3.7069,3.687,3.7071,3.7071,3.7071,3.7072,0,3.695,3.6976,3.693,3.6998,3.7,3.6983,3.7012,3.7013,3.7055,3.7089,3.7107,3.7173,3.7156,3.7232,3.7211,3.7256,3.7261,3.7285,3.7282,3.7284,3.7368,3.7247,3.7049,3.7032,3.7288,3.7289,3.7291,0,3.7109,3.7083,3.7159,3.7112,3.711,3.721,3.7192,3.7227,3.7271,3.7274,3.7321,3.7322,3.7394,3.7404,3.7384,3.7431,3.7372,3.7441,3.7442,3.7441,3.743,3.7249,3.7202,3.7085,3.7315,3.7312,3.7311,0,3.7241,3.7338,3.7324,3.7348,3.741,3.7407,3.7386,3.7408,3.7406,3.7434,3.7419,3.742,3.7476,3.7489,3.7543,3.7519,3.7415,3.758,3.7582,3.7549,3.7332,3.7289,3.7269,3.7456,3.7454,3.7451,3.733,0,3.7481,3.7476,3.7442,3.7488,3.7497,3.7471,3.7549,3.7549,3.7602,3.7649,3.7626,3.7669,3.7687,3.7682,3.7732,3.7653,3.7677,3.7734,3.7813,3.7693,3.7655,3.7639,3.7864,3.7867,3.7869,3.7871,0,0,3.7614,3.761,3.7693,3.7677,3.769,3.7794,3.7759,3.7782,3.7826,3.7833,3.7878,3.7886,3.7917,3.7881,3.7849,3.7855,3.7848,3.7886,3.7749,3.7735,3.7723,3.768,3.7663,3.7875,3.7876,3.7877,3.7877,0,3.7718,3.7755,3.772,3.775,3.7797,3.7849,3.784,3.7903,3.7931,3.7909,3.7992,3.7986,3.7987,3.8012,3.8024,3.7893,3.7954,3.7892,3.7798,3.777,3.7753,3.7738,3.7693,3.7675,3.7883,3.7883,3.7883,0,3.7864,3.7913,3.7904,3.7939,3.797,3.7963,3.8067,3.8054,3.8049,3.8158,3.8134,3.8167,3.8205,3.8159,3.8141,3.8181,3.8047,3.8101,3.8088,3.8087,3.8064,3.8043,3.8025,3.8265,3.8267,3.8267,0,0,3.7942,3.7939,3.8016,3.7967,3.7981,3.8057,3.806,3.8114,3.8148,3.8161,3.8206,3.8234,3.8237,3.8236,3.8241,3.8179,3.8194,3.8145,3.8127,3.8112,3.8103,3.8075,3.8055,3.8271,3.8271,3.8272,0,0,3.7979,3.8069,3.8118,3.8071,3.8102,3.8173,3.8139,3.82,3.8213,3.8224,3.8311,3.8322,3.828,3.8308,3.8353,3.827,3.8347,3.8338,3.8253,3.8232,3.8214,3.8208,3.8462,0,0,0,0,0,3.8126,3.8059,3.8102,3.8106,3.8148,3.815,3.8155,3.8228,3.8282,3.8254,3.8301,3.8366,3.8351,3.8392,3.8393,3.8342,3.8322,3.8313,3.8305,3.8182,3.8159,3.8139,0,0,0,0,0,0,3.8128,3.8133,3.8104,3.8171,3.8182,3.8153,3.8261,3.8279,3.8287,3.83,3.8355,3.8367,3.8426,3.8397,3.8396,3.8346,3.8462,3.8319,3.8311,3.8304,3.8174,3.8155,3.8138,0,0,0,0,0,3.813,3.8134,3.8183,3.8173,3.8182,3.8262,3.8264,3.828,3.8287,3.8359,3.8374,3.8341,3.8423,3.8427,3.8397,3.8345,3.8463,3.8462,3.8314,3.8308,3.8302,3.8165,0,0,0,0,0,0,3.8132,3.8148,3.8187,3.8192,3.8204,3.8265,3.8277,3.828,3.8347,3.8361,3.8349,3.8359,3.842,3.8424,3.8427,3.834,3.8464,3.8463,3.8463,3.8309,3.8304,3.83,0,0,0,0,0,0,3.8146,3.8151,3.8189,3.8225,3.8235,3.8267,3.8278,3.8261,3.8346,3.8333,3.8344,3.8353,3.8414,3.8421,3.8424,3.8394,3.8464,3.8464,3.8463,3.8463,3.8305,3.8302,0,0,0,0,0,0,3.815,3.8154,3.8224,3.8231,3.8241,3.8305,3.8253,3.8291,3.838,3.8329,3.8389,3.8394,3.8409,3.8413,3.8421,3.8389,3.8393,3.8464,3.8464,3.8464,3.8463,0,0,0,0,0,0,0,3.8152,3.8106,3.8156,3.8237,3.8245,3.8241,3.8242,3.8244,3.8381,3.8384,3.8388,3.8392,3.8467,3.8466,3.8466,3.8386,0,0,3.8464,3.8464,0,0,0,0,0,0,0,0,3.8106,3.8106,3.8156,3.8157,3.8158,3.8241,3.8242,3.8243,3.8381,3.8384,3.8387,3.839,3.8467,3.8466,3.8466,0,0,0,0,0,0,0,0,0,0,0,0,0,0,0,3.8156,3.8157,0,3.8241,3.8242,3.8243,3.8382,3.8384,3.8387,3.8389,3.8466,3.8466,3.8466,0,0,0,0,0,0,0,0,0,0,0,0,0,0,0,0,0,0,0,0,0,0,0,0,0,0,0,0,0,0,0,0,0,0,0,0,0,0,0,0,0,0,0,0,0,0,0,0,0,0,0,0,0,0,0,0,0,0,0,0,0,0,0,0,0,0,0,0,0]}]]]